Weather in Yurasov Khutor

Russia / Bryansk Oblast     52°08′21″N   34°31′18″E
temp.,
°C
wind,
m/s
gust,
m/s
humid.,
%
clouds,
%
prec.,
mm/h
press.,
hPa
HPBL,
m
12 august, fri
fri1200:00+18ne512795 0.0 1022259
03:00+17ne411785 0.0 1021209
06:00+16ne4117830 0.0 1022218
09:00+21ene6106623 0.0 1021384
12:00+26ene685692 0.0 1021869
15:00+28ene685179 0.0 10201420
18:00+26ne5859100 0.0 1020389
21:00+21ne5137868 0.4 1020262
13 august, sat
sat1300:00+19ne51473100 0.0 1020291
03:00+18ene51369100 0.0 1019282
06:00+18ene51269100 0.0 1019251
09:00+21e51161100 0.0 1019450
12:00+21ene51065100 0.0 1018353
15:00+24ene71365100 0.4 1017602
18:00+24ene71364100 0.0 1015350
21:00+24e6156198 0.0 1015482
14 august, sun
sun1400:00+23ese7176395 0.0 1016531
03:00+26ese71236100 0.0 1014232
06:00+21e51267100 0.0 1015277
09:00+24e596688 0.0 1015306
12:00+27e565364 0.0 1015734
15:00+28e3653100 0.0 1015771
18:00+24n225799 0.1 101427
21:00+22ene4967100 0.1 1015153
15 august, mon
mon1500:00+23e5106196 0.0 1015246
03:00+21e4967100 0.0 1015197
06:00+21e51358100 0.0 1015361
09:00+21ene51068100 0.6 1015268
12:00+29e7104113 0.0 1014967
15:00+30e7103959 0.0 10141749
18:00+28ene6124674 0.0 1014497
21:00+25e6154997 0.0 1014469
16 august, tue
tue1600:00+26e91838100 0.0 1013566
03:00+23ese81844100 0.0 1013452
06:00+22ese71743100 0.1 1013467
09:00+22ese71449100 0.1 1014454
12:00+25ese71046100 0.0 1015780
15:00+23ese2762100 0.0 1014245
18:00+24e61456100 0.0 1013598
21:00+23ene375195 0.1 1012292